WAT1038 KOAK-KSNA

Flight info

Callsign WAT1038
Flight time 1h 7m
Altitude 35000
Route CNDEL5 YYUNG TILLT RUKKI1
Aircraft E145/M-SDFGIRW/S

Departure

Time 2026-05-04 22:39
Airport San Francisco Bay Oakland International Airport (KOAK)

Arrival

Time 2026-05-04 23:46
Airport John Wayne Orange County International Airport (KSNA)
Time Latitude Longitude Altitude Speed Heading
2026-05-04 22:22 37.72668 -122.20558 12 ft 0 kts 305°
2026-05-04 22:34 37.72669 -122.20559 13 ft 0 kts 301°
2026-05-04 22:34 37.72668 -122.20562 13 ft 0 kts 268°
2026-05-04 22:35 37.72667 -122.20564 13 ft 0 kts 239°
2026-05-04 22:35 37.72660 -122.20567 13 ft 2 kts 201°
2026-05-04 22:35 37.72635 -122.20573 12 ft 4 kts 173°
2026-05-04 22:35 37.72608 -122.20539 12 ft 6 kts 117°
2026-05-04 22:36 37.72587 -122.20478 12 ft 6 kts 117°
2026-05-04 22:36 37.72583 -122.20470 12 ft 0 kts 124°
2026-05-04 22:36 37.72580 -122.20464 12 ft 0 kts 129°
2026-05-04 22:37 37.72540 -122.20459 13 ft 13 kts 199°
2026-05-04 22:38 37.72440 -122.20508 12 ft 16 kts 201°
2026-05-04 22:38 37.72327 -122.20564 12 ft 17 kts 201°
2026-05-04 22:38 37.72244 -122.20625 12 ft 12 kts 255°
2026-05-04 22:38 37.72312 -122.20864 12 ft 62 kts 291°
2026-05-04 22:39 37.72566 -122.21645 12 ft 126 kts 292°
2026-05-04 22:39 37.72929 -122.22816 204 ft 154 kts 289°
2026-05-04 22:39 37.73337 -122.24158 596 ft 181 kts 293°
2026-05-04 22:39 37.74018 -122.25666 1020 ft 213 kts 299°
2026-05-04 22:40 37.74781 -122.27353 1414 ft 229 kts 298°
2026-05-04 22:40 37.75596 -122.29174 1870 ft 246 kts 298°
2026-05-04 22:40 37.76506 -122.31042 1948 ft 251 kts 308°
2026-05-04 22:40 37.77657 -122.32694 2172 ft 256 kts 309°
2026-05-04 22:41 37.78782 -122.34405 3152 ft 251 kts 303°
2026-05-04 22:41 37.79316 -122.36420 4009 ft 250 kts 272°
2026-05-04 22:41 37.78891 -122.38537 4676 ft 257 kts 239°
2026-05-04 22:41 37.77590 -122.40082 5350 ft 263 kts 206°
2026-05-04 22:42 37.75826 -122.40572 6100 ft 263 kts 183°
2026-05-04 22:42 37.74020 -122.40958 6870 ft 266 kts 191°
2026-05-04 22:42 37.72198 -122.41396 7603 ft 269 kts 189°
2026-05-04 22:42 37.70335 -122.41801 8324 ft 273 kts 188°
2026-05-04 22:43 37.68457 -122.42200 9043 ft 276 kts 188°
2026-05-04 22:43 37.66542 -122.42606 9756 ft 279 kts 188°
2026-05-04 22:43 37.64639 -122.43008 10418 ft 283 kts 188°
2026-05-04 22:43 37.62661 -122.43426 10860 ft 295 kts 188°
2026-05-04 22:44 37.60591 -122.43863 11313 ft 306 kts 188°
2026-05-04 22:44 37.58460 -122.44312 11737 ft 317 kts 188°
2026-05-04 22:44 37.56233 -122.44782 12158 ft 327 kts 188°
2026-05-04 22:44 37.53960 -122.45261 12702 ft 332 kts 188°
2026-05-04 22:45 37.51678 -122.45742 13297 ft 335 kts 188°
2026-05-04 22:45 37.47035 -122.46719 14411 ft 342 kts 188°
2026-05-04 22:45 37.44690 -122.47212 14970 ft 345 kts 188°
2026-05-04 22:46 37.42293 -122.47715 15482 ft 350 kts 188°
2026-05-04 22:46 37.39880 -122.48222 16029 ft 352 kts 188°
2026-05-04 22:46 37.37459 -122.48730 16519 ft 356 kts 187°
2026-05-04 22:46 37.34998 -122.49246 17030 ft 359 kts 187°
2026-05-04 22:47 37.32533 -122.49762 17536 ft 362 kts 187°
2026-05-04 22:47 37.30054 -122.50281 18116 ft 363 kts 187°
2026-05-04 22:47 37.27588 -122.50796 18706 ft 362 kts 187°
2026-05-04 22:47 37.25049 -122.51325 19017 ft 372 kts 187°
2026-05-04 22:48 37.22471 -122.51863 19029 ft 388 kts 187°
2026-05-04 22:48 37.19745 -122.52432 19025 ft 400 kts 187°
2026-05-04 22:48 37.17051 -122.52997 19843 ft 384 kts 187°
2026-05-04 22:48 37.14524 -122.53526 21048 ft 364 kts 186°
2026-05-04 22:49 37.12002 -122.54050 21641 ft 363 kts 186°
2026-05-04 22:49 37.09508 -122.54568 22098 ft 366 kts 185°
2026-05-04 22:49 37.06988 -122.55092 22635 ft 366 kts 185°
2026-05-04 22:49 37.04469 -122.55616 23140 ft 367 kts 185°
2026-05-04 22:50 37.01940 -122.56033 23664 ft 361 kts 174°
2026-05-04 22:50 36.99548 -122.55476 24115 ft 346 kts 150°
2026-05-04 22:50 36.97485 -122.54074 24689 ft 337 kts 143°
2026-05-04 22:50 36.95438 -122.52590 25145 ft 339 kts 143°
2026-05-04 22:51 36.93406 -122.51104 25630 ft 340 kts 142°
2026-05-04 22:51 36.91373 -122.49611 26089 ft 341 kts 142°
2026-05-04 22:51 36.89317 -122.48099 26400 ft 347 kts 143°
2026-05-04 22:51 36.87214 -122.46555 26718 ft 352 kts 143°
2026-05-04 22:52 36.85100 -122.45003 27027 ft 356 kts 143°
2026-05-04 22:52 36.82924 -122.43407 27340 ft 361 kts 143°
2026-05-04 22:52 36.80747 -122.41811 27656 ft 365 kts 143°
2026-05-04 22:52 36.78562 -122.40209 27954 ft 369 kts 143°
2026-05-04 22:53 36.76325 -122.38571 28259 ft 373 kts 144°
2026-05-04 22:53 36.74077 -122.36926 28568 ft 376 kts 144°
2026-05-04 22:53 36.71818 -122.35274 28865 ft 380 kts 144°
2026-05-04 22:53 36.69524 -122.33598 29167 ft 383 kts 144°
2026-05-04 22:54 36.67226 -122.31920 29442 ft 386 kts 145°
2026-05-04 22:54 36.64904 -122.30225 29743 ft 389 kts 145°
2026-05-04 22:54 36.62575 -122.28528 30028 ft 391 kts 145°
2026-05-04 22:54 36.60225 -122.26815 30308 ft 394 kts 146°
2026-05-04 22:55 36.57826 -122.25067 30530 ft 396 kts 147°
2026-05-04 22:55 36.55445 -122.23334 30753 ft 399 kts 147°
2026-05-04 22:55 36.53067 -122.21606 30983 ft 400 kts 147°
2026-05-04 22:55 36.50625 -122.19830 31212 ft 402 kts 148°
2026-05-04 22:56 36.48240 -122.18100 31456 ft 403 kts 149°
2026-05-04 22:56 36.45796 -122.16326 31704 ft 404 kts 150°
2026-05-04 22:56 36.43376 -122.14573 31949 ft 405 kts 150°
2026-05-04 22:56 36.40933 -122.12802 32187 ft 406 kts 150°
2026-05-04 22:57 36.38475 -122.11024 32424 ft 406 kts 151°
2026-05-04 22:57 36.36056 -122.09273 32651 ft 407 kts 151°
2026-05-04 22:57 36.33584 -122.07487 32887 ft 407 kts 151°
2026-05-04 22:57 36.31129 -122.05713 33111 ft 407 kts 152°
2026-05-04 22:58 36.28704 -122.03963 33348 ft 407 kts 152°
2026-05-04 22:58 36.26246 -122.02189 33623 ft 406 kts 152°
2026-05-04 22:58 36.23786 -122.00417 33909 ft 406 kts 152°
2026-05-04 22:58 36.21363 -121.98671 34178 ft 405 kts 153°
2026-05-04 22:59 36.18931 -121.96922 34453 ft 405 kts 153°
2026-05-04 22:59 36.16515 -121.95184 34724 ft 404 kts 153°
2026-05-04 22:59 36.14085 -121.93436 34973 ft 404 kts 153°
2026-05-04 22:59 36.11632 -121.91676 35017 ft 410 kts 153°
2026-05-04 23:00 36.06599 -121.88066 35023 ft 423 kts 154°
2026-05-04 23:00 36.01507 -121.84312 35013 ft 437 kts 148°
2026-05-04 23:01 35.97115 -121.79025 34997 ft 451 kts 130°
2026-05-04 23:01 35.93320 -121.72712 35007 ft 462 kts 131°
2026-05-04 23:02 35.89372 -121.66404 35033 ft 466 kts 132°
2026-05-04 23:02 35.85421 -121.60126 34964 ft 460 kts 132°
2026-05-04 23:03 35.81536 -121.53966 35273 ft 453 kts 133°
2026-05-04 23:03 35.79580 -121.50871 35025 ft 458 kts 133°
2026-05-04 23:03 35.77644 -121.47807 35009 ft 456 kts 133°
2026-05-04 23:04 35.73764 -121.41677 35004 ft 453 kts 133°
2026-05-04 23:04 35.69913 -121.35603 35000 ft 450 kts 134°
2026-05-04 23:05 35.66079 -121.29566 34987 ft 446 kts 134°
2026-05-04 23:05 35.62266 -121.23573 34988 ft 443 kts 135°
2026-05-04 23:06 35.58496 -121.17658 34989 ft 440 kts 135°
2026-05-04 23:06 35.54721 -121.11746 34984 ft 437 kts 135°
2026-05-04 23:07 35.50859 -121.06062 34985 ft 429 kts 143°
2026-05-04 23:07 35.46406 -121.01228 34980 ft 427 kts 146°
2026-05-04 23:08 35.41961 -120.96408 34986 ft 427 kts 147°
2026-05-04 23:08 35.37509 -120.91600 34991 ft 428 kts 147°
2026-05-04 23:09 35.33026 -120.86758 34995 ft 429 kts 147°
2026-05-04 23:09 35.28558 -120.81941 35000 ft 429 kts 147°
2026-05-04 23:10 35.24084 -120.77123 35007 ft 429 kts 147°
2026-05-04 23:10 35.19606 -120.72309 35011 ft 430 kts 147°
2026-05-04 23:11 35.15131 -120.67506 35014 ft 430 kts 148°
2026-05-04 23:11 35.10636 -120.62688 35008 ft 430 kts 147°
2026-05-04 23:12 35.06145 -120.57881 35007 ft 430 kts 147°
2026-05-04 23:12 35.01423 -120.53635 35015 ft 420 kts 155°
2026-05-04 23:13 34.96549 -120.49689 35018 ft 420 kts 155°
2026-05-04 23:13 34.91658 -120.45729 35016 ft 420 kts 155°
2026-05-04 23:14 34.86773 -120.41779 35036 ft 420 kts 155°
2026-05-04 23:14 34.81909 -120.37852 35043 ft 421 kts 156°
2026-05-04 23:15 34.77010 -120.33903 35030 ft 422 kts 156°
2026-05-04 23:15 34.72122 -120.29968 35024 ft 422 kts 156°
2026-05-04 23:16 34.67231 -120.26040 35018 ft 422 kts 156°
2026-05-04 23:16 34.62321 -120.22107 35015 ft 421 kts 156°
2026-05-04 23:17 34.57457 -120.18218 35017 ft 420 kts 156°
2026-05-04 23:17 34.52568 -120.14314 35017 ft 420 kts 157°
2026-05-04 23:18 34.47690 -120.10424 35017 ft 419 kts 156°
2026-05-04 23:18 34.42811 -120.06539 35020 ft 418 kts 157°
2026-05-04 23:19 34.37947 -120.02693 35007 ft 417 kts 158°
2026-05-04 23:19 34.33062 -119.98921 35007 ft 416 kts 158°
2026-05-04 23:20 34.28160 -119.95232 35008 ft 414 kts 159°
2026-05-04 23:20 34.25692 -119.93412 34525 ft 416 kts 159°
2026-05-04 23:20 34.23276 -119.91515 34008 ft 423 kts 154°
2026-05-04 23:21 34.20941 -119.89343 33491 ft 419 kts 155°
2026-05-04 23:21 34.18574 -119.87370 32992 ft 415 kts 158°
2026-05-04 23:21 34.16188 -119.85450 32529 ft 412 kts 158°
2026-05-04 23:21 34.13783 -119.83541 32059 ft 410 kts 159°
2026-05-04 23:22 34.11409 -119.81665 31590 ft 408 kts 159°
2026-05-04 23:22 34.09081 -119.79701 31114 ft 415 kts 154°
2026-05-04 23:22 34.06975 -119.77284 30651 ft 429 kts 145°
2026-05-04 23:22 34.05130 -119.74384 30179 ft 445 kts 136°
2026-05-04 23:23 34.03599 -119.71069 29713 ft 454 kts 130°
2026-05-04 23:23 34.02069 -119.67789 29246 ft 450 kts 133°
2026-05-04 23:23 34.00479 -119.64555 28790 ft 451 kts 133°
2026-05-04 23:23 33.98875 -119.61343 28343 ft 452 kts 133°
2026-05-04 23:24 33.97252 -119.58106 27960 ft 452 kts 132°
2026-05-04 23:24 33.95631 -119.54880 27559 ft 451 kts 132°
2026-05-04 23:24 33.94017 -119.51670 27159 ft 449 kts 132°
2026-05-04 23:24 33.92401 -119.48464 26757 ft 447 kts 131°
2026-05-04 23:25 33.90778 -119.45243 26362 ft 446 kts 131°
2026-05-04 23:25 33.89193 -119.42074 25970 ft 443 kts 130°
2026-05-04 23:25 33.87654 -119.38910 25603 ft 437 kts 129°
2026-05-04 23:25 33.86127 -119.35783 25218 ft 432 kts 129°
2026-05-04 23:26 33.84608 -119.32679 24815 ft 427 kts 129°
2026-05-04 23:26 33.83121 -119.29643 24410 ft 423 kts 129°
2026-05-04 23:26 33.81639 -119.26620 24004 ft 419 kts 128°
2026-05-04 23:26 33.80163 -119.23608 23584 ft 416 kts 128°
2026-05-04 23:27 33.78706 -119.20641 23160 ft 413 kts 128°
2026-05-04 23:27 33.77243 -119.17661 22727 ft 409 kts 128°
2026-05-04 23:27 33.75812 -119.14754 22305 ft 407 kts 128°
2026-05-04 23:27 33.74381 -119.11845 21870 ft 403 kts 128°
2026-05-04 23:28 33.72964 -119.08969 21452 ft 400 kts 127°
2026-05-04 23:28 33.71549 -119.06098 21012 ft 398 kts 127°
2026-05-04 23:28 33.70128 -119.03237 20576 ft 395 kts 127°
2026-05-04 23:28 33.68730 -119.00452 20117 ft 391 kts 127°
2026-05-04 23:29 33.67350 -118.97704 19449 ft 384 kts 127°
2026-05-04 23:29 33.65970 -118.94956 18749 ft 379 kts 127°
2026-05-04 23:29 33.64632 -118.92297 18032 ft 375 kts 126°
2026-05-04 23:29 33.63287 -118.89623 17282 ft 372 kts 125°
2026-05-04 23:30 33.61972 -118.87013 16540 ft 368 kts 125°
2026-05-04 23:30 33.60663 -118.84412 15751 ft 367 kts 125°
2026-05-04 23:30 33.59338 -118.81788 14956 ft 364 kts 124°
2026-05-04 23:30 33.58049 -118.79233 14257 ft 360 kts 124°
2026-05-04 23:31 33.57026 -118.76520 13547 ft 360 kts 107°
2026-05-04 23:31 33.56541 -118.73594 12843 ft 357 kts 102°
2026-05-04 23:31 33.56071 -118.70667 12126 ft 355 kts 103°
2026-05-04 23:31 33.55607 -118.67785 11474 ft 350 kts 102°
2026-05-04 23:32 33.55159 -118.65008 11024 ft 340 kts 102°
2026-05-04 23:32 33.54718 -118.62276 10716 ft 326 kts 102°
2026-05-04 23:32 33.54296 -118.59666 10410 ft 314 kts 102°
2026-05-04 23:32 33.53887 -118.57145 10105 ft 304 kts 103°
2026-05-04 23:33 33.53490 -118.54703 9818 ft 296 kts 102°
2026-05-04 23:33 33.53096 -118.52274 9499 ft 294 kts 102°
2026-05-04 23:33 33.52703 -118.49866 8984 ft 295 kts 102°
2026-05-04 23:33 33.52315 -118.47483 8489 ft 295 kts 102°
2026-05-04 23:34 33.52118 -118.45033 7984 ft 295 kts 91°
2026-05-04 23:34 33.52064 -118.42610 7501 ft 295 kts 92°
2026-05-04 23:34 33.52003 -118.40149 7029 ft 293 kts 92°
2026-05-04 23:34 33.51942 -118.37752 6654 ft 288 kts 92°
2026-05-04 23:35 33.51879 -118.35362 6270 ft 283 kts 92°
2026-05-04 23:35 33.51939 -118.33051 5907 ft 280 kts 77°
2026-05-04 23:35 33.52580 -118.30859 5529 ft 275 kts 68°
2026-05-04 23:35 33.53253 -118.28749 5145 ft 272 kts 68°
2026-05-04 23:36 33.53923 -118.26656 4962 ft 261 kts 69°
2026-05-04 23:36 33.54556 -118.24677 4939 ft 245 kts 69°
2026-05-04 23:36 33.55147 -118.22827 4933 ft 232 kts 68°
2026-05-04 23:36 33.55720 -118.21034 4941 ft 229 kts 68°
2026-05-04 23:37 33.56280 -118.19282 4933 ft 226 kts 68°
2026-05-04 23:37 33.56890 -118.17560 4934 ft 222 kts 57°
2026-05-04 23:37 33.57751 -118.16015 4942 ft 224 kts 54°
2026-05-04 23:37 33.58621 -118.14455 4947 ft 231 kts 55°
2026-05-04 23:38 33.59533 -118.12819 4949 ft 237 kts 54°
2026-05-04 23:38 33.60458 -118.11159 4947 ft 240 kts 55°
2026-05-04 23:38 33.61382 -118.09501 4946 ft 240 kts 55°
2026-05-04 23:38 33.62308 -118.07837 4947 ft 237 kts 55°
2026-05-04 23:39 33.63215 -118.06207 4943 ft 234 kts 55°
2026-05-04 23:39 33.64115 -118.04588 4939 ft 229 kts 55°
2026-05-04 23:39 33.64983 -118.03029 4941 ft 225 kts 54°
2026-05-04 23:39 33.65854 -118.01463 4942 ft 224 kts 55°
2026-05-04 23:40 33.66719 -117.99905 4946 ft 225 kts 54°
2026-05-04 23:40 33.67594 -117.98329 4965 ft 225 kts 55°
2026-05-04 23:40 33.68456 -117.96777 4963 ft 226 kts 55°
2026-05-04 23:40 33.69336 -117.95202 4940 ft 227 kts 52°
2026-05-04 23:41 33.70526 -117.94022 4697 ft 222 kts 24°
2026-05-04 23:41 33.71891 -117.93188 4464 ft 221 kts 25°
2026-05-04 23:41 33.73249 -117.92336 4244 ft 218 kts 25°
2026-05-04 23:41 33.74600 -117.91496 3866 ft 217 kts 24°
2026-05-04 23:42 33.75916 -117.90673 3514 ft 215 kts 25°
2026-05-04 23:42 33.77253 -117.89838 3358 ft 217 kts 25°
2026-05-04 23:42 33.78484 -117.88805 3190 ft 217 kts 49°
2026-05-04 23:42 33.79128 -117.87203 2966 ft 209 kts 77°
2026-05-04 23:43 33.79173 -117.85561 2673 ft 187 kts 101°
2026-05-04 23:43 33.78744 -117.84182 2309 ft 170 kts 124°
2026-05-04 23:43 33.78011 -117.83142 1992 ft 162 kts 143°
2026-05-04 23:43 33.77072 -117.82459 1663 ft 153 kts 163°
2026-05-04 23:44 33.76055 -117.82184 1548 ft 145 kts 181°
2026-05-04 23:44 33.75067 -117.82271 1386 ft 142 kts 198°
2026-05-04 23:44 33.74166 -117.82689 1343 ft 134 kts 211°
2026-05-04 23:44 33.73376 -117.83203 1307 ft 124 kts 210°
2026-05-04 23:45 33.72571 -117.83697 1118 ft 131 kts 209°
2026-05-04 23:45 33.71771 -117.84193 957 ft 130 kts 210°
2026-05-04 23:45 33.70978 -117.84695 791 ft 127 kts 210°
2026-05-04 23:45 33.70184 -117.85210 591 ft 129 kts 210°
2026-05-04 23:46 33.69401 -117.85710 385 ft 127 kts 208°
2026-05-04 23:46 33.68623 -117.86213 193 ft 127 kts 208°
2026-05-04 23:46 33.67879 -117.86689 51 ft 112 kts 210°
2026-05-04 23:46 33.67459 -117.86954 55 ft 33 kts 207°
2026-05-04 23:47 33.67424 -117.87084 56 ft 7 kts 289°
2026-05-04 23:47 33.67427 -117.87094 56 ft 0 kts 287°
2026-05-04 23:49 33.67427 -117.87096 56 ft 2 kts 284°
2026-05-04 23:49 33.67376 -117.87163 56 ft 16 kts 207°
2026-05-04 23:49 33.67270 -117.87227 57 ft 17 kts 208°
2026-05-04 23:49 33.67247 -117.87304 57 ft 0 kts 287°